Terminal Aerodrome Forecast
Issued by NWS Duluth, MN

Home | Current Version | Previous Version | Text Only | Print | Product List | Glossary On
Versions: 1 2 3 4 5 6 7 8 9 10 11 12 13 14 15 16 17 18 19 20 21 22 23 24
000
FTUS43 KDLH 281704 AAE
TAFINL
TAF AMD
KINL 281704Z 2817/2912 VRB03KT P6SM OVC005
      TEMPO 2818/2819 SCT005
     FM281900 VRB05KT P6SM SCT005
     FM282100 15007KT P6SM SCT020
     FM282300 15007KT P6SM BKN040
     FM290100 15004KT P6SM VCTS BKN040CB OVC100
     FM290700 16004KT 4SM BR VCTS BKN025CB OVC050=

USA.gov is the U.S. government's official web portal to all federal, state and local government web resources and services.